Location: Newark
(34.0131°N, 4.3314°W)
Time: 01:23:42
(UTC+00:00)

Explorer 7 - Pass Details

Date: 18 October 2019
Orbit: 485 x 680 km, 50.3° (Epoch: 13 November)

Event Time Altitude Azimuth Distance (km) Brightness Sun altitude
Rises 19:52:00 0° 297° (WNW) 2,704 11.4 -28.1°
Reaches altitude 10° 19:54:29 10° 284° (WNW) 1,844 10.4 -28.6°
Maximum altitude 19:57:55 24° 229° (SW) 1,200 8.8 -29.3°
Enters shadow 19:58:03 24° 226° (SW) 1,202 8.8 -29.3°
Drops below altitude 10° 20:01:31 10° 175° (S) 1,938 - -30.0°
Sets 20:04:11 0° 161° (SSE) 2,876 - -30.6°
